Location: Briis
(48.6240°N, 2.1211°E)
Time: 01:19:52
(UTC+00:00)

CZ-4B R/B - Pass Details

Date: 25 September 2020
Orbit: 498 x 645 km, 97.8° (Epoch: 23 October)

Event Time Altitude Azimuth Distance (km) Brightness Sun altitude
Rises 05:06:57 0° 10° (N) 2,900 7.7 -6.7°
Reaches altitude 10° 05:09:09 10° 7° (N) 2,008 6.9 -6.4°
Maximum altitude 05:13:28 60° 287° (WNW) 734 4.2 -5.7°
Drops below altitude 10° 05:17:51 10° 209° (SSW) 2,037 6.4 -5.0°
Sets 05:20:05 0° 205° (SSW) 2,946 7.2 -4.6°
